| time (UTC) | temp F | wind direction | speed knots | gust knots | rain 1hr in | rain 24hr in | rain mn in | humidity % | barometer mb |
| 20260506113547 | 64 | 262 | 3.5 | 6.1 | 0.00 | 0.00 | 0.00 | 78 | 1007.6 |
| 20260506112041 | 64 | 246 | 0.9 | 4.3 | 0.00 | 0.00 | 0.00 | 78 | 1007.6 |
| 20260506110540 | 64 | 282 | 0.9 | 4.3 | 0.00 | 0.00 | 0.00 | 78 | 1007.5 |
| 20260506105049 | 64 | 276 | 1.7 | 5.2 | 0.00 | 0.00 | 0.00 | 77 | 1007.0 |
| 20260506103555 | 64 | 255 | 1.7 | 3.5 | 0.00 | 0.00 | 0.00 | 77 | 1007.0 |
| 20260506102034 | 64 | 303 | 1.7 | 6.1 | 0.00 | 0.00 | 0.00 | 76 | 1006.9 |
| 20260506100535 | 64 | 255 | 1.7 | 4.3 | 0.00 | 0.00 | 0.00 | 75 | 1006.8 |
| 20260506095048 | 64 | 263 | 0.9 | 4.3 | 0.00 | 0.01 | 0.00 | 75 | 1007.1 |
| 20260506093545 | 64 | 38 | 1.7 | 7.0 | 0.00 | 0.01 | 0.00 | 75 | 1007.0 |
| 20260506092039 | 63 | 259 | 1.7 | 4.3 | 0.00 | 0.01 | 0.00 | 74 | 1007.0 |
| 20260506090534 | 63 | 269 | 0.0 | 6.1 | 0.00 | 0.01 | 0.00 | 74 | 1006.9 |
| 20260506085028 | 63 | 238 | 0.9 | 2.6 | 0.00 | 0.02 | 0.00 | 73 | 1007.2 |
| 20260506083558 | 63 | 278 | 0.9 | 2.6 | 0.00 | 0.02 | 0.00 | 73 | 1007.2 |
| 20260506082029 | 63 | 263 | 0.0 | 6.1 | 0.00 | 0.02 | 0.00 | 73 | 1007.3 |
| 20260506080600 | 62 | 228 | 0.0 | 2.6 | 0.00 | 0.02 | 0.00 | 73 | 1007.1 |
| 20260506072039 | 63 | 255 | 0.0 | 0.0 | 0.00 | 0.02 | 0.00 | 72 | 1007.5 |
| 20260506070538 | 63 | 255 | 0.0 | 0.0 | 0.00 | 0.02 | 0.00 | 70 | 1007.6 |
| 20260506062042 | 64 | 236 | 0.9 | 2.6 | 0.00 | 0.02 | 0.00 | 69 | 1007.8 |
| 20260506060538 | 64 | 244 | 0.9 | 1.7 | 0.00 | 0.02 | 0.00 | 68 | 1008.0 |
| 20260506050546 | 65 | 258 | 0.9 | 7.0 | 0.00 | 0.02 | 0.00 | 66 | 1008.2 |
| 20260506045040 | 65 | 228 | 1.7 | 3.5 | 0.00 | 0.02 | 0.00 | 65 | 1008.5 |
| 20260506043538 | 65 | 253 | 0.9 | 3.5 | 0.00 | 0.02 | 0.00 | 65 | 1008.3 |
| 20260506042032 | 66 | 212 | 0.9 | 3.5 | 0.00 | 0.02 | 0.00 | 64 | 1008.3 |
| 20260506040531 | 66 | 250 | 1.7 | 7.0 | 0.00 | 0.02 | 0.00 | 63 | 1008.3 |
| 20260506035045 | 67 | 243 | 0.9 | 8.7 | 0.00 | 0.02 | 0.02 | 61 | 1008.3 |
| 20260506033539 | 67 | 198 | 2.6 | 6.1 | 0.00 | 0.02 | 0.02 | 59 | 1008.3 |
| 20260506032029 | 67 | 211 | 2.6 | 6.1 | 0.00 | 0.02 | 0.02 | 60 | 1008.1 |
| 20260506030526 | 68 | 257 | 1.7 | 3.5 | 0.00 | 0.02 | 0.02 | 58 | 1008.2 |
| 20260506025030 | 68 | 251 | 1.7 | 5.2 | 0.00 | 0.02 | 0.02 | 57 | 1008.2 |
| 20260506023540 | 68 | 234 | 2.6 | 7.8 | 0.00 | 0.02 | 0.02 | 57 | 1008.2 |
| 20260506022034 | 69 | 269 | 2.6 | 7.8 | 0.00 | 0.02 | 0.02 | 56 | 1008.2 |
| 20260506020534 | 69 | 240 | 0.9 | 4.3 | 0.00 | 0.02 | 0.02 | 54 | 1008.2 |
| 20260506015045 | 70 | 231 | 0.0 | 3.5 | 0.00 | 0.02 | 0.02 | 54 | 1008.2 |
| 20260506013605 | 70 | 141 | 0.9 | 3.5 | 0.00 | 0.02 | 0.02 | 53 | 1007.9 |
| 20260506012040 | 70 | 209 | 1.7 | 7.0 | 0.00 | 0.02 | 0.02 | 53 | 1007.7 |
| 20260506010545 | 71 | 257 | 2.6 | 7.0 | 0.00 | 0.02 | 0.02 | 53 | 1007.5 |
| 20260506005103 | 71 | 268 | 1.7 | 7.8 | 0.00 | 0.02 | 0.02 | 53 | 1007.4 |
| 20260506003541 | 72 | 314 | 0.9 | 4.3 | 0.00 | 0.02 | 0.02 | 51 | 1007.3 |
| 20260506002045 | 73 | 284 | 0.9 | 4.3 | 0.00 | 0.02 | 0.02 | 49 | 1007.1 |
| 20260506000533 | 74 | 288 | 2.6 | 7.0 | 0.00 | 0.02 | 0.02 | 47 | 1007.0 |
| 20260505235045 | 74 | 215 | 1.7 | 4.3 | 0.00 | 0.02 | 0.02 | 48 | 1006.9 |
| 20260505233527 | 75 | 257 | 1.7 | 4.3 | 0.00 | 0.02 | 0.02 | 46 | 1006.7 |
| 20260505232053 | 76 | 266 | 1.7 | 7.0 | 0.00 | 0.02 | 0.02 | 46 | 1006.8 |
| 20260505230554 | 76 | 257 | 2.6 | 7.8 | 0.00 | 0.02 | 0.02 | 44 | 1006.7 |
| 20260505225044 | 77 | 265 | 4.3 | 7.0 | 0.00 | 0.02 | 0.02 | 43 | 1006.4 |
| 20260505223542 | 77 | 247 | 1.7 | 6.1 | 0.00 | 0.02 | 0.02 | 45 | 1006.4 |
| 20260505222041 | 77 | 280 | 1.7 | 6.1 | 0.00 | 0.02 | 0.02 | 46 | 1006.3 |
| 20260505220543 | 78 | 26 | 3.5 | 11.3 | 0.00 | 0.02 | 0.02 | 42 | 1006.1 |
| 20260505215040 | 78 | 116 | 4.3 | 9.6 | 0.00 | 0.02 | 0.02 | 41 | 1006.2 |
| 20260505213539 | 79 | 243 | 3.5 | 9.6 | 0.00 | 0.02 | 0.02 | 41 | 1006.1 |
| 20260505212042 | 79 | 232 | 6.1 | 10.4 | 0.00 | 0.02 | 0.02 | 40 | 1006.0 |
| 20260505210541 | 80 | 297 | 2.6 | 13.9 | 0.00 | 0.02 | 0.02 | 40 | 1006.1 |
| 20260505205053 | 80 | 141 | 4.3 | 13.0 | 0.00 | 0.02 | 0.02 | 41 | 1005.9 |
| 20260505203554 | 81 | 112 | 2.6 | 11.3 | 0.00 | 0.02 | 0.02 | 40 | 1005.8 |
| 20260505202032 | 81 | 115 | 2.6 | 9.6 | 0.00 | 0.02 | 0.02 | 39 | 1005.8 |
| 20260505200558 | 82 | 278 | 1.7 | 9.6 | 0.00 | 0.02 | 0.02 | 35 | 1005.9 |
| 20260505195115 | 82 | 254 | 5.2 | 9.6 | 0.00 | 0.02 | 0.02 | 33 | 1006.1 |
| 20260505193553 | 82 | 339 | 2.6 | 12.2 | 0.00 | 0.02 | 0.02 | 34 | 1006.1 |
| 20260505192034 | 82 | 218 | 6.1 | 12.2 | 0.00 | 0.02 | 0.02 | 34 | 1006.4 |
| 20260505190538 | 81 | 259 | 3.5 | 14.8 | 0.00 | 0.02 | 0.02 | 34 | 1006.5 |
| 20260505185030 | 82 | 340 | 4.3 | 13.9 | 0.00 | 0.02 | 0.02 | 35 | 1006.6 |
| 20260505183554 | 81 | 292 | 4.3 | 11.3 | 0.00 | 0.02 | 0.02 | 32 | 1007.0 |
| 20260505182052 | 81 | 270 | 4.3 | 15.6 | 0.00 | 0.02 | 0.02 | 37 | 1006.9 |
| 20260505180556 | 81 | 346 | 2.6 | 15.6 | 0.00 | 0.02 | 0.02 | 38 | 1007.3 |
| 20260505175036 | 81 | 295 | 4.3 | 8.7 | 0.00 | 0.02 | 0.02 | 44 | 1007.6 |
| 20260505173534 | 81 | 136 | 3.5 | 9.6 | 0.00 | 0.02 | 0.02 | 44 | 1007.6 |
| 20260505172035 | 81 | 217 | 2.6 | 9.6 | 0.00 | 0.02 | 0.02 | 46 | 1007.7 |
| 20260505170537 | 80 | 285 | 1.7 | 9.6 | 0.00 | 0.02 | 0.02 | 46 | 1007.8 |
| 20260505165113 | 79 | 76 | 3.5 | 8.7 | 0.00 | 0.02 | 0.02 | 48 | 1008.1 |
| 20260505163549 | 79 | 258 | 7.0 | 11.3 | 0.00 | 0.02 | 0.02 | 48 | 1008.1 |
| 20260505162046 | 78 | 254 | 2.6 | 8.7 | 0.00 | 0.02 | 0.02 | 47 | 1008.3 |
| 20260505160541 | 77 | 253 | 5.2 | 11.3 | 0.00 | 0.02 | 0.02 | 51 | 1008.5 |
| 20260505152042 | 76 | 259 | 1.7 | 9.6 | 0.00 | 0.02 | 0.02 | 52 | 1008.8 |
| 20260505150535 | 76 | 236 | 1.7 | 7.0 | 0.00 | 0.02 | 0.02 | 55 | 1009.0 |
| 20260505140550 | 72 | 330 | 1.7 | 6.1 | 0.00 | 0.02 | 0.02 | 63 | 1009.7 |
| 20260505123543 | 59 | 315 | 2.6 | 4.3 | 0.00 | 0.02 | 0.02 | 90 | 1009.6 |
| 20260505122043 | 58 | 262 | 0.9 | 2.6 | 0.00 | 0.02 | 0.02 | 94 | 1009.6 |
| 20260505120544 | 57 | 207 | 0.9 | 3.5 | 0.00 | 0.02 | 0.02 | 95 | 1009.7 |
| 20260505115037 | 56 | 341 | 0.0 | 2.6 | 0.00 | 0.02 | 0.02 | 95 | 1009.4 |